Flag for Germany Weather past 2 weeks in Walsrode, Lower Saxony, Germany

Now
41 °F

Fog.


Feels Like: 36 °F
Forecast: 38 / 51 °F
Wind: 7 mph from West

Location: Fassberg

Current Time: Mar 27, 2015 at 8:22:02 AM

Latest Report: Mar 27, 2015 at 7:20 AM


Visibility: 3 mi

Pressure: 29.80 "Hg

Humidity: 93%

Dew point: 39 °F

Location of WalsrodeLocation

Historic Weather in Walsrode — Graph

°F

Walsrode temperature yesterday

Maximum temperature yesterday: 45 °F (at 12:20 AM)
Minimum temperature yesterday: 37 °F (at 7:20 PM)
Average temperature yesterday: 41 °F

Past Weeks' High & Low Weather Summary

 TemperatureHumidityPressure
High59 °F (Mar 18, 1:20 PM)100% (Mar 12, 7:20 AM)30.54 "Hg (Mar 12, 7:20 AM)
Low23 °F (Mar 20, 5:20 AM)29% (Mar 19, 3:20 PM)29.65 "Hg (Mar 25, 5:20 PM)
Average41 °F76%30.17 "Hg
* Reported Mar 12 6:20 AM — Mar 27 6:20 AM, Walsrode, Weather by CustomWeather, © 2015

Note: Actual official high and low records may vary slightly from our data, if they occured in-between our weather recording intervals... More about our weather records

Advertising

Walsrode weather history for previous 24 hours

 ConditionsComfort  
Time TempWeatherWind HumidityBarometerVisibility
6:20 AM
Fri, Mar 27
41 °FFog.8 mph93%29.77 "Hg2 mi
5:20 AM41 °FLight rain. Fog.8 mph93%29.74 "Hg1 mi
4:20 AM41 °FLight rain. Fog.9 mph93%29.74 "Hg2 mi
3:20 AM41 °FLight rain. Fog.8 mph87%29.71 "Hg2 mi
2:20 AM41 °FFog.8 mph87%29.71 "Hg2 mi
1:20 AM39 °FLight rain. Fog.6 mph93%29.71 "Hg2 mi
12:20 AM39 °FLight rain. Fog.6 mph93%29.74 "Hg2 mi
11:20 PM
Thu, Mar 26
39 °FLight rain. Fog.3 mph93%29.74 "Hg2 mi
10:20 PM39 °FFog.3 mph87%29.74 "Hg3 mi
9:20 PM39 °FPassing clouds.3 mph87%29.74 "Hg4 mi
8:20 PM37 °FPassing clouds.1 mph87%29.74 "HgN/A
7:20 PM37 °FPartly cloudy.2 mph87%29.74 "HgN/A
6:20 PM43 °FPartly sunny.2 mph71%29.74 "HgN/A
5:20 PM43 °FBroken clouds.6 mph71%29.71 "HgN/A
4:20 PM45 °FBroken clouds.6 mph66%29.74 "HgN/A
3:20 PM43 °FPartly sunny.8 mph71%29.74 "HgN/A
2:20 PM43 °FPartly sunny.9 mph71%29.74 "HgN/A
1:20 PM43 °FPartly sunny.10 mph66%29.74 "HgN/A
12:20 PM43 °FPartly sunny.9 mph71%29.74 "HgN/A
11:20 AM41 °FPartly sunny.8 mph76%29.74 "HgN/A
10:20 AM41 °FPartly sunny.9 mph76%29.74 "HgN/A
9:20 AM39 °FPartly sunny.13 mph87%29.74 "HgN/A
8:20 AM41 °FPartly sunny.9 mph81%29.74 "HgN/A
Weather by CustomWeather, © 2015

See weather overviewHow to use our weather pages